EWG9001 EDDH-EDDH

Flight info

Callsign EWG9001
Flight time 0h 49m
Altitude 9000
Route SOKWO1G SOKWO
Aircraft A20N/M-SDE2E3FGHIRWXY/LB1

Departure

Time 2026-04-21 11:56
Airport Hamburg Helmut Schmidt Airport (EDDH)

Arrival

Time 2026-04-21 12:45
Airport Hamburg Helmut Schmidt Airport (EDDH)
Time Latitude Longitude Altitude Speed Heading
2026-04-21 11:20 53.63246 10.00351 49 ft 0 kts 86°
2026-04-21 11:43 53.63245 10.00337 49 ft 2 kts 86°
2026-04-21 11:43 53.63245 10.00312 49 ft 2 kts 96°
2026-04-21 11:43 53.63248 10.00287 49 ft 2 kts 116°
2026-04-21 11:44 53.63256 10.00266 49 ft 2 kts 134°
2026-04-21 11:44 53.63267 10.00249 49 ft 2 kts 152°
2026-04-21 11:44 53.63281 10.00239 49 ft 2 kts 169°
2026-04-21 11:44 53.63289 10.00237 49 ft 1 kts 179°
2026-04-21 11:45 53.63294 10.00237 49 ft 0 kts 177°
2026-04-21 11:51 53.63289 10.00238 49 ft 2 kts 177°
2026-04-21 11:51 53.63234 10.00243 49 ft 13 kts 175°
2026-04-21 11:51 53.63112 10.00260 48 ft 17 kts 175°
2026-04-21 11:52 53.63001 10.00192 47 ft 17 kts 212°
2026-04-21 11:52 53.62891 10.00070 47 ft 18 kts 214°
2026-04-21 11:52 53.62817 9.99977 47 ft 11 kts 212°
2026-04-21 11:52 53.62720 9.99886 47 ft 18 kts 208°
2026-04-21 11:53 53.62638 9.99752 47 ft 16 kts 252°
2026-04-21 11:53 53.62612 9.99528 46 ft 23 kts 258°
2026-04-21 11:53 53.62580 9.99242 46 ft 24 kts 257°
2026-04-21 11:53 53.62549 9.98967 46 ft 24 kts 257°
2026-04-21 11:54 53.62519 9.98711 45 ft 13 kts 258°
2026-04-21 11:54 53.62544 9.98593 44 ft 13 kts 327°
2026-04-21 11:54 53.62643 9.98495 44 ft 18 kts 320°
2026-04-21 11:54 53.62702 9.98414 44 ft 0 kts 319°
2026-04-21 11:55 53.62717 9.98393 44 ft 7 kts 319°
2026-04-21 11:55 53.62770 9.98326 43 ft 10 kts 338°
2026-04-21 11:55 53.62803 9.98348 43 ft 0 kts 50°
2026-04-21 11:56 53.62833 9.98411 44 ft 35 kts 49°
2026-04-21 11:56 53.63197 9.99150 45 ft 123 kts 50°
2026-04-21 11:56 53.63822 10.00467 563 ft 150 kts 49°
2026-04-21 11:56 53.64340 10.01996 1246 ft 166 kts 75°
2026-04-21 11:57 53.64162 10.04083 1580 ft 192 kts 112°
2026-04-21 11:57 53.63174 10.05529 1529 ft 191 kts 156°
2026-04-21 11:57 53.61880 10.05445 1440 ft 189 kts 201°
2026-04-21 11:57 53.60881 10.04033 1462 ft 193 kts 232°
2026-04-21 11:58 53.60069 10.02257 1472 ft 193 kts 231°
2026-04-21 11:58 53.59222 10.00484 1469 ft 193 kts 230°
2026-04-21 11:58 53.58371 9.98744 1435 ft 190 kts 230°
2026-04-21 11:58 53.57557 9.97116 1391 ft 176 kts 230°
2026-04-21 11:59 53.56807 9.95599 1361 ft 159 kts 236°
2026-04-21 11:59 53.56568 9.93950 1250 ft 144 kts 289°
2026-04-21 11:59 53.57070 9.92562 1202 ft 138 kts 321°
2026-04-21 11:59 53.57793 9.91544 1094 ft 134 kts 332°
2026-04-21 12:00 53.58634 9.91004 927 ft 124 kts
2026-04-21 12:00 53.59385 9.91439 771 ft 109 kts 44°
2026-04-21 12:00 53.59864 9.92428 657 ft 110 kts 52°
2026-04-21 12:00 53.60363 9.93385 528 ft 110 kts 53°
2026-04-21 12:01 53.60854 9.94385 381 ft 109 kts 50°
2026-04-21 12:01 53.61333 9.95370 260 ft 109 kts 49°
2026-04-21 12:01 53.61824 9.96347 127 ft 108 kts 53°
2026-04-21 12:01 53.62285 9.97299 40 ft 102 kts 52°
2026-04-21 12:02 53.62709 9.98160 43 ft 102 kts 50°
2026-04-21 12:02 53.63821 10.00738 1288 ft 155 kts 75°
2026-04-21 12:02 53.63490 10.02487 1470 ft 169 kts 131°
2026-04-21 12:03 53.62380 10.03248 1480 ft 181 kts 173°
2026-04-21 12:03 53.61141 10.02680 1493 ft 189 kts 212°
2026-04-21 12:03 53.60202 10.01108 1502 ft 191 kts 229°
2026-04-21 12:03 53.59346 9.99417 1479 ft 190 kts 229°
2026-04-21 12:04 53.58485 9.97722 1481 ft 188 kts 228°
2026-04-21 12:04 53.57677 9.96114 1434 ft 174 kts 229°
2026-04-21 12:04 53.56930 9.94617 1376 ft 159 kts 229°
2026-04-21 12:04 53.56498 9.93046 1315 ft 145 kts 278°
2026-04-21 12:05 53.56878 9.91528 1305 ft 138 kts 317°
2026-04-21 12:05 53.57551 9.90481 1246 ft 133 kts 329°
2026-04-21 12:05 53.58393 9.90002 1141 ft 122 kts 14°
2026-04-21 12:05 53.59033 9.90698 983 ft 109 kts 52°
2026-04-21 12:06 53.59524 9.91699 861 ft 110 kts 52°
2026-04-21 12:06 53.60003 9.92690 728 ft 110 kts 51°
2026-04-21 12:06 53.60507 9.93670 552 ft 109 kts 52°
2026-04-21 12:06 53.60978 9.94648 413 ft 109 kts 52°
2026-04-21 12:07 53.61473 9.95635 249 ft 109 kts 53°
2026-04-21 12:07 53.61948 9.96599 91 ft 107 kts 50°
2026-04-21 12:07 53.62401 9.97540 40 ft 96 kts 49°
2026-04-21 12:07 53.62848 9.98437 45 ft 126 kts 50°
2026-04-21 12:08 53.63478 9.99712 710 ft 149 kts 53°
2026-04-21 12:08 53.63833 10.01310 1321 ft 157 kts 91°
2026-04-21 12:08 53.63279 10.02962 1436 ft 173 kts 139°
2026-04-21 12:08 53.62093 10.03424 1447 ft 185 kts 184°
2026-04-21 12:09 53.60932 10.02507 1438 ft 189 kts 220°
2026-04-21 12:09 53.60039 10.00847 1464 ft 191 kts 229°
2026-04-21 12:09 53.59171 9.99130 1460 ft 191 kts 228°
2026-04-21 12:09 53.58295 9.97449 1456 ft 192 kts 227°
2026-04-21 12:10 53.57410 9.95805 1461 ft 185 kts 227°
2026-04-21 12:10 53.56905 9.93961 1402 ft 165 kts 274°
2026-04-21 12:10 53.57312 9.92371 1257 ft 137 kts 322°
2026-04-21 12:10 53.58018 9.91530 1157 ft 120 kts 339°
2026-04-21 12:11 53.58783 9.91140 940 ft 109 kts
2026-04-21 12:11 53.59467 9.91583 806 ft 107 kts 46°
2026-04-21 12:11 53.59938 9.92575 722 ft 109 kts 51°
2026-04-21 12:11 53.60442 9.93553 584 ft 109 kts 50°
2026-04-21 12:12 53.60919 9.94534 427 ft 109 kts 51°
2026-04-21 12:12 53.61411 9.95516 257 ft 108 kts 53°
2026-04-21 12:12 53.61883 9.96486 105 ft 108 kts 50°
2026-04-21 12:12 53.62333 9.97414 40 ft 97 kts 51°
2026-04-21 12:13 53.62751 9.98252 43 ft 100 kts 49°
2026-04-21 12:13 53.63320 9.99414 487 ft 143 kts 52°
2026-04-21 12:13 53.63738 10.00858 1286 ft 142 kts 88°
2026-04-21 12:13 53.63266 10.02416 1444 ft 164 kts 133°
2026-04-21 12:14 53.62171 10.03189 1451 ft 181 kts 172°
2026-04-21 12:14 53.60957 10.02598 1408 ft 189 kts 214°
2026-04-21 12:14 53.60030 10.01028 1420 ft 190 kts 228°
2026-04-21 12:14 53.59163 9.99317 1440 ft 190 kts 229°
2026-04-21 12:15 53.58325 9.97577 1454 ft 188 kts 229°
2026-04-21 12:15 53.57507 9.95974 1460 ft 172 kts 227°
2026-04-21 12:15 53.56750 9.94496 1347 ft 161 kts 228°
2026-04-21 12:15 53.56069 9.93107 1335 ft 150 kts 230°
2026-04-21 12:16 53.55428 9.91739 1366 ft 150 kts 232°
2026-04-21 12:16 53.54810 9.90321 1427 ft 150 kts 246°
2026-04-21 12:16 53.54796 9.88659 1406 ft 141 kts 299°
2026-04-21 12:16 53.55392 9.87435 1412 ft 135 kts 333°
2026-04-21 12:17 53.56226 9.86805 1427 ft 129 kts 354°
2026-04-21 12:17 53.57086 9.86823 1416 ft 118 kts 28°
2026-04-21 12:17 53.57664 9.87758 1434 ft 116 kts 55°
2026-04-21 12:17 53.58122 9.88856 1332 ft 112 kts 55°
2026-04-21 12:18 53.58611 9.89857 1133 ft 110 kts 54°
2026-04-21 12:18 53.59092 9.90850 968 ft 109 kts 53°
2026-04-21 12:18 53.59573 9.91824 824 ft 109 kts 52°
2026-04-21 12:18 53.60068 9.92807 701 ft 109 kts 51°
2026-04-21 12:19 53.60552 9.93788 552 ft 109 kts 52°
2026-04-21 12:19 53.61037 9.94762 393 ft 108 kts 54°
2026-04-21 12:19 53.61528 9.95746 228 ft 108 kts 53°
2026-04-21 12:19 53.61996 9.96702 73 ft 106 kts 54°
2026-04-21 12:20 53.62429 9.97598 40 ft 90 kts 49°
2026-04-21 12:20 53.62855 9.98455 45 ft 123 kts 48°
2026-04-21 12:20 53.63475 9.99667 731 ft 144 kts 54°
2026-04-21 12:20 53.63756 10.01276 1388 ft 159 kts 97°
2026-04-21 12:21 53.63074 10.02788 1510 ft 176 kts 144°
2026-04-21 12:21 53.61869 10.03160 1496 ft 184 kts 186°
2026-04-21 12:21 53.60746 10.02071 1465 ft 190 kts 224°
2026-04-21 12:21 53.59878 10.00370 1470 ft 191 kts 229°
2026-04-21 12:22 53.59031 9.98682 1474 ft 185 kts 228°
2026-04-21 12:22 53.58250 9.97076 1462 ft 167 kts 231°
2026-04-21 12:22 53.57644 9.95526 1388 ft 152 kts 257°
2026-04-21 12:22 53.57757 9.93894 1309 ft 142 kts 303°
2026-04-21 12:23 53.58387 9.92700 1232 ft 130 kts 330°
2026-04-21 12:23 53.59149 9.92094 1020 ft 114 kts 359°
2026-04-21 12:23 53.59868 9.92392 819 ft 107 kts 41°
2026-04-21 12:23 53.60345 9.93379 682 ft 109 kts 50°
2026-04-21 12:24 53.60839 9.94346 482 ft 109 kts 53°
2026-04-21 12:24 53.61320 9.95324 316 ft 108 kts 50°
2026-04-21 12:24 53.61796 9.96292 141 ft 107 kts 53°
2026-04-21 12:24 53.62247 9.97236 40 ft 102 kts 51°
2026-04-21 12:25 53.62671 9.98092 42 ft 97 kts 50°
2026-04-21 12:25 53.63240 9.99237 470 ft 142 kts 51°
2026-04-21 12:25 53.63695 10.00673 1241 ft 152 kts 86°
2026-04-21 12:25 53.63233 10.02379 1511 ft 174 kts 133°
2026-04-21 12:26 53.62084 10.03078 1502 ft 183 kts 176°
2026-04-21 12:26 53.60893 10.02330 1449 ft 191 kts 218°
2026-04-21 12:26 53.60006 10.00661 1429 ft 190 kts 230°
2026-04-21 12:26 53.59167 9.98927 1464 ft 189 kts 230°
2026-04-21 12:27 53.58367 9.97247 1423 ft 174 kts 230°
2026-04-21 12:27 53.57639 9.95694 1386 ft 158 kts 233°
2026-04-21 12:27 53.57204 9.94106 1276 ft 147 kts 269°
2026-04-21 12:27 53.57503 9.92577 1224 ft 134 kts 321°
2026-04-21 12:28 53.58270 9.91842 1103 ft 120 kts 354°
2026-04-21 12:28 53.59042 9.91907 924 ft 107 kts 22°
2026-04-21 12:28 53.59707 9.92464 749 ft 107 kts 36°
2026-04-21 12:28 53.60286 9.93295 598 ft 108 kts 49°
2026-04-21 12:29 53.60776 9.94254 447 ft 108 kts 51°
2026-04-21 12:29 53.61257 9.95231 297 ft 108 kts 52°
2026-04-21 12:29 53.61738 9.96200 161 ft 107 kts 53°
2026-04-21 12:29 53.62217 9.97166 42 ft 103 kts 53°
2026-04-21 12:30 53.62656 9.98056 42 ft 102 kts 50°
2026-04-21 12:30 53.63152 9.99054 46 ft 125 kts 48°
2026-04-21 12:30 53.63792 10.00326 774 ft 148 kts 55°
2026-04-21 12:30 53.64049 10.02090 1042 ft 176 kts 102°
2026-04-21 12:31 53.63273 10.03676 1082 ft 182 kts 149°
2026-04-21 12:31 53.62033 10.03762 1029 ft 184 kts 198°
2026-04-21 12:31 53.61063 10.02372 995 ft 188 kts 231°
2026-04-21 12:31 53.60245 10.00648 1010 ft 188 kts 230°
2026-04-21 12:32 53.59426 9.98887 1043 ft 188 kts 233°
2026-04-21 12:32 53.58695 9.97136 1093 ft 175 kts 236°
2026-04-21 12:32 53.58047 9.95524 1037 ft 161 kts 236°
2026-04-21 12:32 53.57405 9.94029 963 ft 148 kts 230°
2026-04-21 12:33 53.56854 9.92582 914 ft 146 kts 259°
2026-04-21 12:33 53.57020 9.91028 914 ft 132 kts 317°
2026-04-21 12:33 53.57778 9.90337 1038 ft 122 kts
2026-04-21 12:33 53.58593 9.90617 1001 ft 120 kts 32°
2026-04-21 12:34 53.59289 9.91411 894 ft 121 kts 44°
2026-04-21 12:34 53.59878 9.92430 729 ft 120 kts 51°
2026-04-21 12:34 53.60421 9.93525 586 ft 120 kts 51°
2026-04-21 12:34 53.60954 9.94621 423 ft 120 kts 50°
2026-04-21 12:35 53.61480 9.95681 255 ft 116 kts 49°
2026-04-21 12:35 53.61985 9.96693 92 ft 111 kts 54°
2026-04-21 12:35 53.62450 9.97634 40 ft 96 kts 50°
2026-04-21 12:35 53.62941 9.98632 69 ft 138 kts 49°
2026-04-21 12:36 53.63569 9.99911 854 ft 153 kts 56°
2026-04-21 12:36 53.63891 10.01677 896 ft 173 kts 95°
2026-04-21 12:36 53.63334 10.03405 887 ft 171 kts 139°
2026-04-21 12:36 53.62194 10.03915 914 ft 179 kts 188°
2026-04-21 12:37 53.61110 10.02863 955 ft 187 kts 225°
2026-04-21 12:37 53.60270 10.01185 984 ft 188 kts 231°
2026-04-21 12:37 53.59433 9.99454 997 ft 187 kts 229°
2026-04-21 12:37 53.58653 9.97827 1060 ft 170 kts 229°
2026-04-21 12:38 53.57955 9.96314 990 ft 157 kts 240°
2026-04-21 12:38 53.57870 9.94622 874 ft 140 kts 300°
2026-04-21 12:38 53.58519 9.93595 812 ft 127 kts 341°
2026-04-21 12:38 53.59364 9.93084 707 ft 127 kts 359°
2026-04-21 12:39 53.60183 9.93327 611 ft 118 kts 34°
2026-04-21 12:39 53.60783 9.94278 474 ft 120 kts 48°
2026-04-21 12:39 53.61322 9.95355 304 ft 118 kts 51°
2026-04-21 12:39 53.61835 9.96388 133 ft 112 kts 54°
2026-04-21 12:40 53.62315 9.97365 41 ft 100 kts 53°
2026-04-21 12:40 53.62763 9.98261 44 ft 114 kts 49°
2026-04-21 12:40 53.63353 9.99482 679 ft 141 kts 57°
2026-04-21 12:40 53.63525 10.01101 883 ft 157 kts 107°
2026-04-21 12:41 53.62705 10.02323 948 ft 174 kts 161°
2026-04-21 12:41 53.61486 10.02021 997 ft 186 kts 207°
2026-04-21 12:41 53.60538 10.00520 1000 ft 188 kts 231°
2026-04-21 12:41 53.59715 9.98805 992 ft 188 kts 231°
2026-04-21 12:42 53.58889 9.97107 992 ft 184 kts 232°
2026-04-21 12:42 53.58144 9.95458 967 ft 168 kts 234°
2026-04-21 12:42 53.57466 9.93986 913 ft 153 kts 229°
2026-04-21 12:42 53.56853 9.92598 882 ft 143 kts 253°
2026-04-21 12:43 53.56956 9.91039 1002 ft 136 kts 316°
2026-04-21 12:43 53.57702 9.90197 1055 ft 129 kts 351°
2026-04-21 12:43 53.58548 9.90205 1078 ft 120 kts 25°
2026-04-21 12:43 53.59196 9.91071 940 ft 120 kts 51°
2026-04-21 12:44 53.59728 9.92162 821 ft 120 kts 53°
2026-04-21 12:44 53.60284 9.93238 642 ft 121 kts 48°
2026-04-21 12:44 53.60812 9.94346 487 ft 120 kts 52°
2026-04-21 12:44 53.61344 9.95407 291 ft 117 kts 50°
2026-04-21 12:45 53.61856 9.96435 130 ft 112 kts 51°
2026-04-21 12:45 53.62338 9.97413 40 ft 98 kts 52°
2026-04-21 12:45 53.62707 9.98157 43 ft 68 kts 50°
2026-04-21 12:45 53.62964 9.98678 44 ft 49 kts 49°
2026-04-21 12:46 53.63169 9.99087 45 ft 42 kts 51°
2026-04-21 12:46 53.63341 9.99444 46 ft 36 kts 50°
2026-04-21 12:46 53.63490 9.99741 48 ft 25 kts 47°
2026-04-21 12:46 53.63560 9.99906 49 ft 16 kts 62°
2026-04-21 12:47 53.63517 10.00059 50 ft 16 kts 141°
2026-04-21 12:47 53.63457 10.00152 50 ft 11 kts 121°
2026-04-21 12:47 53.63448 10.00269 50 ft 6 kts 86°
2026-04-21 12:47 53.63450 10.00314 50 ft 2 kts 86°
2026-04-21 12:48 53.63450 10.00320 50 ft 0 kts 86°